Regional Weather Roundup
Issued by NWS

Home | Current Version | Previous Version | Graphics & Text | Print | Product List | Glossary On
Versions: 1 2 3 4 5 6 7 8 9 10 11 12 13 14 15 16 17 18 19 20 21 22 23 24 25 26 27 28 29 30 31 32 33 34 35 36 37 38 39 40 41 42 43 44 45 46 47 48 49 50
000
ASUS43 KOAX 261810
RWRNE

WEATHER ROUNDUP FOR NEBRASKA
NATIONAL WEATHER SERVICE OMAHA NE
1200 PM CST WED NOV 26 2014

NOTES: SATELLITE DATA IS BEING USED TO AUGMENT CLOUD COVER ABOVE
       12000 FEET.
       "FAIR" INDICATES FEW OR NO CLOUDS BELOW 12,000 FEET WITH NO
       SIGNIFICANT WEATHER AND/OR OBSTRUCTIONS TO VISIBILITY.

  * THESE STATIONS DO NOT REPORT WEATHER SUCH AS RAIN...SNOW OR FOG.

NEZ001>004-019>022-054>056-261900-
NEBRASKA PANHANDLE

CITY           SKY/WX    TMP DP  RH WIND       PRES   REMARKS
SCOTTSBLUFF    FLURRIES  31  27  85 W6        30.24F WCI  25
6HR MIN TEMP:  29; 6HR MAX TEMP:  31; 6HR PCP:  0.03;

ALLIANCE       FLURRIES  29  22  75 VRB6      30.22F WCI  23
6HR MIN TEMP:  25; 6HR MAX TEMP:  30; 6HR PCP: TRACE;

CHADRON        CLOUDY    42  22  44 SE3       30.24F
6HR MIN TEMP:  30; 6HR MAX TEMP:  47; 6HR PCP: TRACE;

KIMBALL        CLOUDY    27  26  94 NW3       30.20F FOG
SIDNEY         LGT SNOW  29  25  85 CALM      30.24F FOG
6HR MIN TEMP:  26; 6HR MAX TEMP:  29; 6HR PCP:  0.05;

$$

NEZ057>060-069>072-079>082-261900-
SOUTHWEST NEBRASKA

CITY           SKY/WX    TMP DP  RH WIND       PRES   REMARKS
IMPERIAL       CLOUDY    33  20  58 N14       30.28R WCI  23
6HR MIN TEMP:  30; 6HR MAX TEMP:  34;

LEXINGTON      PTSUNNY   32  21  64 N21       30.25S WCI  20
MCCOOK         CLOUDY    34  19  54 N18       30.26S WCI  23
6HR MIN TEMP:  32; 6HR MAX TEMP:  37;

OGALLALA       CLOUDY    33  23  65 NW9       30.27R WCI  26
$$

NEZ005>010-023>029-035>040-094-261900-
NORTH CENTRAL NEBRASKA

CITY           SKY/WX    TMP DP  RH WIND       PRES   REMARKS
VALENTINE      CLOUDY    24  17  74 N9        30.30R WCI  14
6HR MIN TEMP:  21; 6HR MAX TEMP:  25;

AINSWORTH      CLOUDY    23  17  78 N10       30.28S WCI  12
BROKEN BOW     CLOUDY    28  19  69 N20G29    30.25R WCI  15
6HR MIN TEMP:  26; 6HR MAX TEMP:  30;

O`NEILL        CLOUDY    24  19  81 NW20G25   30.26S WCI  10
ORD            CLOUDY    25  17  72 N24G31    30.24S WCI   9
6HR MIN TEMP:  24; 6HR MAX TEMP:  30;

THEDFORD       CLOUDY    28  21  77 NW13      30.27F WCI  17
$$

NEZ041-046>049-061>064-073>077-083>087-261900-
SOUTH CENTRAL NEBRASKA

CITY           SKY/WX    TMP DP  RH WIND       PRES   REMARKS
GRAND ISLAND   PTSUNNY   29  19  66 N25G37    30.21S WCI  14
6HR MIN TEMP:  27; 6HR MAX TEMP:  35;

AURORA         CLOUDY    29  20  70 N25G32    30.20S WCI  14
HASTINGS       CLOUDY    29  19  66 N26G37    30.20R WCI  14
6HR MIN TEMP:  28; 6HR MAX TEMP:  37;

HEBRON         CLOUDY    31  20  63 N21G32    30.18R WCI  19
HOLDREGE       FAIR      32  20  61 N17G30    30.23S WCI  21
KEARNEY *      PTSUNNY   30  18  59 NW25G31   30.23S WCI  16
YORK           CLOUDY    28  21  74 N18G25    30.19R WCI  16
$$

NEZ011>018-030>034-042>045-261900-
NORTHEAST NEBRASKA

CITY           SKY/WX    TMP DP  RH WIND       PRES   REMARKS
NORFOLK        CLOUDY    22  17  81 NW28      30.19R WCI   4
6HR MIN TEMP:  22; 6HR MAX TEMP:  35; 6HR PCP: TRACE;

ALBION         CLOUDY    25  17  72 NW23G30   30.21R WCI  10
BLAIR          CLOUDY    32  25  76 N25G38    30.07R WCI  18
COLUMBUS *     CLOUDY    27  16  63 N20G29    30.20R WCI  13
FREMONT        CLOUDY    30  24  77 N24G32    30.14R WCI  16
TEKAMAH        CLOUDY    31  23  72 N30G38    30.13R WCI  16
6HR MIN TEMP:  31; 6HR MAX TEMP:  39; 6HR PCP: TRACE;

WAYNE          CLOUDY    23  19  85 NW23G29   30.19R WCI   7
$$

NEZ050>053-065>068-078-088>093-261900-
SOUTHEAST NEBRASKA

CITY           SKY/WX    TMP DP  RH WIND       PRES   REMARKS
LINCOLN        CLOUDY    30  22  72 N30G40    30.14R WCI  15
6HR MIN TEMP:  30; 6HR MAX TEMP:  39;

OMAHA EPPLEY   FLURRIES  31  26  82 N32G43    30.08R WCI  16
6HR MIN TEMP:  31; 6HR MAX TEMP:  39; 6HR PCP: TRACE;

BEATRICE       CLOUDY    30  24  77 NW28G33   30.14R WCI  16
FALLS CITY     CLOUDY    35  29  78 NW25G39   30.04R WCI  23
6HR MIN TEMP:  35; 6HR MAX TEMP:  39; 6HR PCP:  0.01;

NEBRASKA CITY  CLOUDY    34  28  78 NW28      30.05R WCI  20
PLATTSMOUTH    CLOUDY    32  26  80 NW22G31   30.06R WCI  19
$$

NEZ044-045-051>053-067-261900-
OMAHA AREA

CITY           SKY/WX    TMP DP  RH WIND       PRES   REMARKS
OMAHA EPPLEY   FLURRIES  31  26  82 N32G43    30.08R WCI  16
6HR MIN TEMP:  31; 6HR MAX TEMP:  39; 6HR PCP: TRACE;

BLAIR          CLOUDY    32  25  76 N25G38    30.07R WCI  18
FREMONT        CLOUDY    30  24  77 N24G32    30.14R WCI  16
MILLARD        CLOUDY    32  25  76 NW23G30   30.09R WCI  19
OFFUTT AFB     CLOUDY    32  26  78 NW15G30   30.07R WCI  22
PLATTSMOUTH    CLOUDY    32  26  80 NW22G31   30.06R WCI  19
WAHOO          CLOUDY    30  23  76 N30G40    30.12R WCI  15
$$


USA.gov is the U.S. government's official web portal to all federal, state and local government web resources and services.